Time,TemperatureF,DewpointF,PressureIn,WindDirection,WindDirectionDegrees,WindSpeedMPH,WindSpeedGustMPH,Humidity,HourlyPrecipIn,Conditions,Clouds,dailyrainin,SoftwareType,DateUTC
2013-01-09 00:00:00,61.4,60.5,30.26,ENE,74,0.0,1.0,97,0.00,,,0.00,Wunderground v.1.15,2013-01-09 05:00:00,
2013-01-09 00:10:00,61.4,60.5,30.26,ENE,74,0.0,1.0,97,0.00,,,0.00,Wunderground v.1.15,2013-01-09 05:10:00,
2013-01-09 00:20:00,61.4,60.5,30.26,ENE,74,0.0,1.0,97,0.00,,,0.00,Wunderground v.1.15,2013-01-09 05:20:00,
2013-01-09 00:30:00,61.5,60.6,30.26,ENE,74,0.0,1.0,97,0.00,,,0.00,Wunderground v.1.15,2013-01-09 05:30:00,
2013-01-09 00:40:00,61.6,60.7,30.26,ENE,74,0.0,1.0,97,0.00,,,0.00,Wunderground v.1.15,2013-01-09 05:40:00,
2013-01-09 00:50:00,62.0,61.1,30.26,ENE,74,0.0,1.0,97,0.00,,,0.00,Wunderground v.1.15,2013-01-09 05:50:00,
2013-01-09 01:00:00,62.2,61.3,30.26,ENE,74,0.0,1.0,97,0.00,,,0.00,Wunderground v.1.15,2013-01-09 06:00:00,
2013-01-09 01:10:00,62.1,61.2,30.26,ENE,74,0.0,1.0,97,0.00,,,0.00,Wunderground v.1.15,2013-01-09 06:10:00,
2013-01-09 01:19:00,62.0,61.1,30.26,ENE,74,0.0,1.0,97,0.00,,,0.00,Wunderground v.1.15,2013-01-09 06:19:00,
2013-01-09 01:30:00,62.0,61.1,30.26,NE,53,0.0,1.0,97,0.00,,,0.00,Wunderground v.1.15,2013-01-09 06:30:00,
2013-01-09 01:40:00,62.2,61.3,30.26,NNE,13,1.0,1.0,97,0.00,,,0.00,Wunderground v.1.15,2013-01-09 06:40:00,
2013-01-09 01:50:00,62.3,61.7,30.26,ENE,68,1.0,1.0,98,0.00,,,0.00,Wunderground v.1.15,2013-01-09 06:50:00,
2013-01-09 02:00:00,62.3,61.7,30.26,ENE,68,1.0,1.0,98,0.00,,,0.00,Wunderground v.1.15,2013-01-09 07:00:00,
2013-01-09 02:10:00,62.3,61.4,30.26,ENE,65,0.0,1.0,97,0.00,,,0.00,Wunderground v.1.15,2013-01-09 07:10:00,
2013-01-09 02:20:00,62.3,61.7,30.26,NNE,19,0.0,1.0,98,0.00,,,0.00,Wunderground v.1.15,2013-01-09 07:20:00,
2013-01-09 02:30:00,62.2,61.6,30.26,NNE,19,0.0,1.0,98,0.00,,,0.00,Wunderground v.1.15,2013-01-09 07:30:00,
2013-01-09 02:40:00,62.1,61.5,30.26,NNE,25,0.0,1.0,98,0.00,,,0.00,Wunderground v.1.15,2013-01-09 07:40:00,
2013-01-09 02:50:00,62.1,61.5,30.26,NNE,25,0.0,1.0,98,0.00,,,0.00,Wunderground v.1.15,2013-01-09 07:50:00,
2013-01-09 03:00:00,62.0,61.4,30.25,NNE,25,0.0,1.0,98,0.00,,,0.00,Wunderground v.1.15,2013-01-09 08:00:00,
2013-01-09 03:10:00,62.0,61.4,30.25,NNE,25,0.0,1.0,98,0.00,,,0.00,Wunderground v.1.15,2013-01-09 08:10:00,
2013-01-09 03:20:00,61.9,61.3,30.25,NNE,25,0.0,1.0,98,0.00,,,0.00,Wunderground v.1.15,2013-01-09 08:20:00,